• In Hungary
  • List of Countries
  • For 7 days
  • Water Temperature
  • Satellite Maps
  • Weather Map
  • News
  • Weather Widgets
  • user-avatar
    Login

    Hourly Weather Cardiff

    Today, 19 November, Sunday

    Time Temperature Precipitation Wind Pressure Humidity
    00:00 +7°C° 0 mm 1 mps 765 mmHg 91%
    01:00 +7°C° 0 mm 1 mps 765 mmHg 90%
    02:00 +5°C° 0 mm 2 mps 765 mmHg 90%
    03:00 +5°C° 0 mm 2 mps 765 mmHg 90%
    04:00 +6°C° 0 mm 1 mps 765 mmHg 90%
    05:00 +5°C° 0 mm 1 mps 765 mmHg 89%
    06:00 +5°C° 0 mm 1 mps 765 mmHg 89%
    07:00 +6°C° 0 mm 1 mps 766 mmHg 88%
    08:00 +6°C° 0 mm 1 mps 766 mmHg 87%
    09:00 +5°C° 0 mm 0 mps 766 mmHg 86%
    10:00 +7°C° 0 mm 1 mps 766 mmHg 81%
    11:00 +9°C° 0 mm 1 mps 766 mmHg 77%
    12:00 +10°C° 0 mm 1 mps 766 mmHg 73%
    13:00 +10°C° 0 mm 1 mps 766 mmHg 75%
    14:00 +10°C° 0 mm 1 mps 766 mmHg 77%
    15:00 +9°C° 0 mm 2 mps 766 mmHg 79%
    16:00 +8°C° 0 mm 2 mps 765 mmHg 82%
    17:00 +8°C° 0 mm 2 mps 765 mmHg 86%
    18:00 +7°C° 0 mm 2 mps 765 mmHg 89%
    19:00 +8°C° 0 mm 3 mps 765 mmHg 91%
    20:00 +8°C° 0 mm 3 mps 764 mmHg 92%
    21:00 +7°C° 0 mm 4 mps 764 mmHg 94%
    22:00 +8°C° 0 mm 4 mps 764 mmHg 94%
    23:00 +8°C° 0 mm 5 mps 763 mmHg 94%

    Tomorrow, 20 November, Monday

    Time Temperature Precipitation Wind Pressure Humidity
    00:00 +9°C° 0 mm 6 mps 763 mmHg 94%
    01:00 +9°C° 0 mm 6 mps 763 mmHg 93%
    02:00 +9°C° 0 mm 7 mps 762 mmHg 92%
    03:00 +9°C° 0 mm 7 mps 761 mmHg 91%
    04:00 +9°C° 0.1 mm 7 mps 761 mmHg 91%
    05:00 +10°C° 0.1 mm 7 mps 761 mmHg 91%
    06:00 +10°C° 0.1 mm 8 mps 760 mmHg 91%
    07:00 +10°C° 0.1 mm 8 mps 760 mmHg 90%
    08:00 +10°C° 0.1 mm 8 mps 760 mmHg 90%
    09:00 +11°C° 0.1 mm 8 mps 760 mmHg 90%
    10:00 +11°C° 0.1 mm 8 mps 759 mmHg 90%
    11:00 +11°C° 0.1 mm 8 mps 759 mmHg 90%
    12:00 +11°C° 0.1 mm 9 mps 759 mmHg 90%
    13:00 +11°C° 0.3 mm 9 mps 758 mmHg 90%
    14:00 +12°C° 0.3 mm 9 mps 758 mmHg 90%
    15:00 +12°C° 0.3 mm 9 mps 758 mmHg 90%
    16:00 +12°C° 0.4 mm 8 mps 758 mmHg 91%
    17:00 +12°C° 0.4 mm 8 mps 758 mmHg 92%
    18:00 +12°C° 0.4 mm 7 mps 758 mmHg 92%
    19:00 +12°C° 0.3 mm 7 mps 758 mmHg 93%
    20:00 +13°C° 0.3 mm 6 mps 758 mmHg 93%
    21:00 +11°C° 0.3 mm 6 mps 758 mmHg 94%
    22:00 +11°C° 0.1 mm 6 mps 758 mmHg 94%
    23:00 +12°C° 0.1 mm 5 mps 758 mmHg 95%

    Day after tomorrow, 21 November, Tuesday

    Time Temperature Precipitation Wind Pressure Humidity
    00:00 +12°C° 0.1 mm 5 mps 758 mmHg 95%
    01:00 +12°C° 0 mm 5 mps 758 mmHg 95%
    02:00 +12°C° 0 mm 5 mps 757 mmHg 95%
    03:00 +12°C° 0 mm 5 mps 757 mmHg 95%
    04:00 +12°C° 0 mm 5 mps 757 mmHg 95%
    05:00 +11°C° 0 mm 4 mps 756 mmHg 95%
    06:00 +11°C° 0 mm 4 mps 756 mmHg 95%
    07:00 +11°C° 0 mm 4 mps 756 mmHg 94%
    08:00 +10°C° 0 mm 5 mps 756 mmHg 93%
    09:00 +12°C° 0 mm 5 mps 756 mmHg 93%
    10:00 +12°C° 0 mm 5 mps 756 mmHg 91%
    11:00 +11°C° 0 mm 6 mps 755 mmHg 89%
    12:00 +13°C° 0 mm 6 mps 755 mmHg 88%
    13:00 +12°C° 0 mm 7 mps 755 mmHg 87%
    14:00 +12°C° 0 mm 7 mps 754 mmHg 87%
    15:00 +12°C° 0 mm 7 mps 754 mmHg 86%
    16:00 +12°C° 0 mm 8 mps 753 mmHg 86%
    17:00 +12°C° 0 mm 8 mps 753 mmHg 86%
    18:00 +12°C° 0 mm 8 mps 752 mmHg 86%
    19:00 +12°C° 0 mm 8 mps 752 mmHg 85%
    20:00 +12°C° 0 mm 9 mps 752 mmHg 85%
    21:00 +12°C° 0 mm 9 mps 751 mmHg 84%
    22:00 +12°C° 0 mm 9 mps 751 mmHg 85%
    23:00 +12°C° 0 mm 9 mps 750 mmHg 85%

    22 November, Wednesday

    Time Temperature Precipitation Wind Pressure Humidity
    00:00 +12°C° 0 mm 10 mps 750 mmHg 86%
    01:00 +12°C° 0.2 mm 10 mps 750 mmHg 87%
    02:00 +13°C° 0.2 mm 10 mps 749 mmHg 87%
    03:00 +13°C° 0.2 mm 10 mps 749 mmHg 88%
    04:00 +13°C° 0.1 mm 9 mps 749 mmHg 88%
    05:00 +13°C° 0.1 mm 9 mps 748 mmHg 88%
    06:00 +13°C° 0.1 mm 8 mps 748 mmHg 88%
    07:00 +13°C° 0.1 mm 8 mps 748 mmHg 88%
    08:00 +13°C° 0.1 mm 8 mps 748 mmHg 87%
    09:00 +13°C° 0.1 mm 8 mps 748 mmHg 87%
    10:00 +13°C° 0.1 mm 8 mps 748 mmHg 84%
    11:00 +15°C° 0.1 mm 9 mps 747 mmHg 82%
    12:00 +15°C° 0.1 mm 9 mps 747 mmHg 79%
    13:00 +15°C° 0 mm 9 mps 747 mmHg 78%
    14:00 +15°C° 0 mm 9 mps 746 mmHg 77%
    15:00 +13°C° 0 mm 9 mps 745 mmHg 77%
    16:00 +13°C° 0 mm 9 mps 745 mmHg 74%
    17:00 +13°C° 0 mm 10 mps 744 mmHg 71%
    18:00 +13°C° 0 mm 10 mps 743 mmHg 68%
    19:00 +13°C° 0.4 mm 11 mps 743 mmHg 72%
    20:00 +13°C° 0.4 mm 12 mps 742 mmHg 76%
    21:00 +13°C° 0.4 mm 13 mps 742 mmHg 80%
    22:00 +13°C° 0.7 mm 13 mps 741 mmHg 80%
    23:00 +13°C° 0.7 mm 13 mps 741 mmHg 81%

    23 November, Thursday

    Time Temperature Precipitation Wind Pressure Humidity
    00:00 +12°C° 0.7 mm 14 mps 740 mmHg 81%
    01:00 +12°C° 1.5 mm 13 mps 739 mmHg 82%
    02:00 +12°C° 1.5 mm 13 mps 739 mmHg 82%
    03:00 +12°C° 1.5 mm 12 mps 738 mmHg 83%
    04:00 +12°C° 0.3 mm 11 mps 739 mmHg 84%
    05:00 +12°C° 0.3 mm 10 mps 739 mmHg 85%
    06:00 +12°C° 0.3 mm 9 mps 739 mmHg 87%
    07:00 +12°C° 0.1 mm 9 mps 741 mmHg 87%
    08:00 +12°C° 0.1 mm 9 mps 742 mmHg 87%
    09:00 +12°C° 0.1 mm 9 mps 743 mmHg 87%
    10:00 +12°C° 0.1 mm 9 mps 744 mmHg 85%
    11:00 +12°C° 0.1 mm 8 mps 745 mmHg 82%
    12:00 +13°C° 0.1 mm 8 mps 745 mmHg 80%
    13:00 +13°C° 0.1 mm 8 mps 746 mmHg 81%
    14:00 +12°C° 0.1 mm 7 mps 746 mmHg 81%
    15:00 +12°C° 0.1 mm 7 mps 747 mmHg 82%
    16:00 +12°C° 0 mm 7 mps 747 mmHg 84%
    17:00 +12°C° 0 mm 7 mps 747 mmHg 87%
    18:00 +12°C° 0 mm 7 mps 747 mmHg 90%
    19:00 +12°C° 0.2 mm 8 mps 747 mmHg 89%
    20:00 +13°C° 0.2 mm 9 mps 747 mmHg 88%
    21:00 +13°C° 0.2 mm 10 mps 747 mmHg 87%
    22:00 +13°C° 0.4 mm 9 mps 747 mmHg 87%
    23:00 +13°C° 0.4 mm 9 mps 747 mmHg 88%

    24 November, Friday

    Time Temperature Precipitation Wind Pressure Humidity
    00:00 +12°C° 0.4 mm 9 mps 747 mmHg 88%
    01:00 +12°C° 0.1 mm 8 mps 747 mmHg 88%
    02:00 +12°C° 0.1 mm 7 mps 747 mmHg 89%
    03:00 +13°C° 0.1 mm 6 mps 747 mmHg 90%
    04:00 +11°C° 0.8 mm 6 mps 746 mmHg 91%
    05:00 +11°C° 0.8 mm 6 mps 746 mmHg 91%
    06:00 +11°C° 0.8 mm 6 mps 745 mmHg 92%
    07:00 +11°C° 2.1 mm 7 mps 745 mmHg 92%
    08:00 +12°C° 2.1 mm 8 mps 744 mmHg 91%
    09:00 +12°C° 2.1 mm 9 mps 743 mmHg 91%
    10:00 +12°C° 0.5 mm 9 mps 743 mmHg 89%
    11:00 +13°C° 0.5 mm 10 mps 743 mmHg 88%
    12:00 +13°C° 0.5 mm 10 mps 742 mmHg 86%
    13:00 +13°C° 0.2 mm 8 mps 743 mmHg 86%
    14:00 +12°C° 0.2 mm 7 mps 743 mmHg 86%
    15:00 +11°C° 0.2 mm 6 mps 744 mmHg 86%
    16:00 +11°C° 0 mm 4 mps 744 mmHg 88%
    17:00 +10°C° 0 mm 3 mps 744 mmHg 90%
    18:00 +9°C° 0 mm 2 mps 745 mmHg 92%
    19:00 +9°C° 0 mm 2 mps 744 mmHg 92%
    20:00 +9°C° 0 mm 2 mps 744 mmHg 92%
    21:00 +9°C° 0 mm 2 mps 744 mmHg 93%
    22:00 +8°C° 1.3 mm 4 mps 742 mmHg 93%
    23:00 +8°C° 1.3 mm 5 mps 740 mmHg 94%
    Show more